AirNav   Pilot Hours Calculator
 
 1257 users online  

W52 Goheen Airport
Battle Ground, Washington, USA

GOING TO BATTLE GROUND?


FAA INFORMATION EFFECTIVE 05 DECEMBER 2019

Location

FAA Identifier: W52
Lat/Long: 45-49-36.4670N 122-34-36.6820W
45-49.607783N 122-34.611367W
45.8267964,-122.5768561
(estimated)
Elevation: 292 ft. / 89 m (estimated)
Variation: 20E (1985)
From city: 3 miles NW of BATTLE GROUND, WA
Time zone: UTC -8 (UTC -7 during Daylight Saving Time)
Zip code: 98604

Airport Operations

Airport use: Open to the public
Activation date: 02/1971
Control tower: no
ARTCC: SEATTLE CENTER
FSS: SEATTLE FLIGHT SERVICE STATION
NOTAMs facility: SEA (NOTAM-D service available)
Attendance: CONTINUOUS
OWNER LIVES ON ARPT.
Wind indicator: yes
Segmented circle: no
Lights: ACTVT LIRL RY 15/33 - CTAF.

Airport Communications

CTAF: 122.9
WX ASOS at SPB (12 nm W): 135.875 (503-543-6401)
WX ASOS at VUO (13 nm S): 135.125 (360-696-1280)
WX ASOS at PDX (14 nm S): PHONE (503) 493-7687
WX ASOS at TTD (18 nm SE): 135.625 (503-492-2887)

Nearby radio navigation aids

VOR radial/distance  VOR name  Freq  Var
BTGr346/4.8BATTLE GROUND VORTAC116.6021E
UBGr010/33.0NEWBERG VOR/DME117.4021E

 
NDB name  Hdg/Dist  Freq  Var  ID
BANKS043/22.935616EPND .--. -. -..
KELSO128/24.225617ELSO .-.. ... ---

Airport Services

Parking: tiedowns
Airframe service: MAJOR
Powerplant service: MAJOR
Bulk oxygen: NONE

Runway Information

Runway 15/33

Dimensions: 2565 x 50 ft. / 782 x 15 m
WIDTH OF 43' OVER CULVERT IN CENTER OF FIELD.
Surface: turf, in good condition
SFC UNEVEN WITH AN INCLINE.
Runway edge lights: low intensity
RUNWAY 15  RUNWAY 33
Latitude: 45-49.853517N45-49.446333N
Longitude: 122-34.721833W122-34.563050W
Traffic pattern: leftleft
Visual slope indicator: non-standard VASI system
HAS NSTD SINGLE LIGHT VASI BOTH SIDES OF RY.
Obstructions: 128 ft. trees, 770 ft. from runway, 6:1 slope to clear35 ft. pline, lighted, 157 ft. from runway, 46 ft. left of centerline, 4:1 slope to clear

Runway 7/25

Dimensions: 1500 x 48 ft. / 457 x 15 m
Surface: turf, in good condition
RUNWAY 7  RUNWAY 25
Traffic pattern: leftleft
Obstructions: 20 ft. bldg, 60 ft. from runway, 80 ft. both sides of centerline, 3:1 slope to clear
3 MARKER BALLS ON 45 FT POWER LINE 250 FT FROM RWY END.
66 ft. tree, 581 ft. from runway, 8:1 slope to clear

Airport Ownership and Management from official FAA records

Ownership: Privately-owned
Owner: GORDON GOHEEN
9304 NE 279 ST
BATTLE GROUND, WA 98604
Phone 360-687-3038
Manager: MARK SWONGER
9304 NE 279TH ST
BATTLE GROUND, WA 98604
Phone 360-687-3038

Airport Operational Statistics

Aircraft based on the field: 43
Single engine airplanes: 35
Multi engine airplanes: 6
Helicopters: 1
Ultralights: 1
    
Aircraft operations: avg 66/week *
83% local general aviation
17% transient general aviation
* for 12-month period ending 31 December 2016

Additional Remarks

RY 07/25 FOR EMERGENCY USE ONLY.
HANGAR N SIDE SFC 8 FT FM EDGE OF RY 25.
RWY 25 6 FT FENCE, 16 FT FROM RWY END.
FOR CD CTC PORTLAND APCH AT 503-493-7545.

Instrument Procedures

There are no published instrument procedures at W52.

Some nearby airports with instrument procedures:

KSPB - Scappoose Industrial Airpark (12 nm W)
KVUO - Pearson Field Airport (13 nm S)
KPDX - Portland International Airport (14 nm S)
KTTD - Portland-Troutdale Airport (18 nm SE)
KKLS - Southwest Washington Regional Airport (22 nm NW)
 
Loc | Ops | Rwys | IFR | FBO | Links
Com | Nav | Svcs | Stats | Notes
Area around W52 (Goheen Airport)
 
Road maps at: MapQuest Bing Google
 
Aerial photo
WARNING: Photo may not be current or correct
Aerial photo of W52 (Goheen Airport)
Do you have a better or more recent aerial photo of Goheen Airport that you would like to share? If so, please send us your photo.

 
Sectional chart

 
Airport distance calculator
Flying to Goheen Airport? Find the distance to fly.

From to W52

Sunrise and sunset
Times for 12-Dec-2019
 Local
(UTC-8)
 Zulu
(UTC)
Morning civil twilight07:0915:09
Sunrise07:4315:43
Sunset16:2500:25
Evening civil twilight16:5900:59

Current date and time
Zulu (UTC)  12-Dec-2019 20:02:56
Local (UTC-8)  12-Dec-2019 12:02:56
 
METAR
KSPB 
13nm W 
121953Z AUTO 36004KT 10SM -RA BKN050 OVC065 09/07 A2994 RMK AO2 SLP138 P0012 T00890072
KVUO 
13nm S 
121953Z AUTO 32005KT 3SM RA BR FEW009 BKN016 OVC030 10/08 A2995 RMK AO2 SLP142 P0010 T01000078
KPDX 
15nm S 
121953Z 30007KT 8SM -RA FEW009 BKN016 OVC025 10/08 A2996 RMK AO2 RAB00 SLP145 P0004 T01000083
KTTD 
18nm S 
121953Z 20013G17KT 6SM -RA BKN034 OVC043 11/08 A2995 RMK AO2 RAE02B39 SLP140 P0001 T01110078
KKLS 
22nm NW 
121956Z AUTO 13004KT 6SM RA BR FEW039 OVC049 08/07 A2995 RMK AO2 SLP146 P0008 T00830072
KHIO 
23nm SW 
121953Z 00000KT 2SM -RA BR BKN009 BKN017 OVC039 09/08 A2995 RMK AO2 SLP141 P0007 T00890083
TAF
KPDX 
15nm S 
121748Z 1218/1318 18010KT P6SM -SHRA SCT015 OVC050 TEMPO 1218/1219 4SM SHRA BR SCT008 BKN015 OVC040 FM122000 22010KT P6SM -SHRA SCT025 BKN040 FM130500 21007KT 6SM -SHRA BR SCT015 BKN025 FM130900 20004KT 5SM BR VCSH FEW002 SCT015 BKN021
KTTD 
18nm S 
121748Z 1218/1318 VRB03KT P6SM -SHRA SCT015 OVC050 TEMPO 1218/1219 4SM SHRA BR SCT008 BKN015 OVC040 FM122000 22007KT P6SM -SHRA SCT025 BKN040 FM130500 24006KT 6SM -SHRA BR SCT015 BKN025 FM130900 VRB03KT 5SM BR VCSH FEW002 SCT015 BKN021
NOTAMs
Click for the latest NOTAMs
NOTAMs are issued by the DoD/FAA and will open in a separate window not controlled by AirNav.

 

 
 

Would you like to see your business listed on this page?

 If your business provides an interesting product or service to pilots, flight crews, aircraft, or users of the Goheen Airport, you should consider listing it here.  To start the listing process, click on the button below
 
Add a business
 

Other Pages about Goheen Airport

Update a link
 
Copyright © AirNav, LLC. All rights reserved. Privacy Policy  Contact